Cedar Creek Observed Data For Previous 48 Hours

Caption
Day and Hour Reservoir Elevation (behind dam)* Tailwater Elevation (below dam)* Average Hourly Discharge*
1/17/2018 1 AM CST 566.18 498.75 12
1/17/2018 2 AM CST 566.18 498.75 12
1/17/2018 3 AM CST 566.19 498.75 12
1/17/2018 4 AM CST 566.19 498.76 12
1/17/2018 5 AM CST 566.20 498.75 12
1/17/2018 6 AM CST 566.20 498.75 12
1/17/2018 7 AM CST 566.20 498.75 12
1/17/2018 8 AM CST 566.19 498.77 12
1/17/2018 9 AM CST 566.22 498.76 12
1/17/2018 10 AM CST 566.22 498.74 12
1/17/2018 11 AM CST 566.22 498.75 12
1/17/2018 12 PM CST 566.22 498.76 12
1/17/2018 1 PM CST 566.23 498.76 12
1/17/2018 2 PM CST 566.22 498.76 12
1/17/2018 3 PM CST 566.23 498.76 12
1/17/2018 4 PM CST 566.24 498.76 12
1/17/2018 5 PM CST 566.24 498.76 12
1/17/2018 6 PM CST 566.25 498.75 12
1/17/2018 7 PM CST 566.25 498.75 12
1/17/2018 8 PM CST 566.26 498.76 12
1/17/2018 9 PM CST 566.26 498.76 12
1/17/2018 10 PM CST 566.26 498.75 12
1/17/2018 11 PM CST 566.27 498.75 12
1/18/2018 12 AM CST 566.28 498.76 12
1/18/2018 1 AM CST 566.28 498.75 12
1/18/2018 2 AM CST 566.28 498.74 12
1/18/2018 3 AM CST 566.28 498.75 12
1/18/2018 4 AM CST 566.29 498.74 12
1/18/2018 5 AM CST 566.30 498.74 12
1/18/2018 6 AM CST 566.31 498.74 12
1/18/2018 7 AM CST 566.31 498.76 12
1/18/2018 8 AM CST 566.31 498.74 12
1/18/2018 9 AM CST 566.32 498.95 0
1/18/2018 10 AM CST 566.31 498.97 560
1/18/2018 11 AM CST 566.31 498.93 305
1/18/2018 12 PM CST 566.32 498.92 0
1/18/2018 1 PM CST 566.33 498.93 0
1/18/2018 2 PM CST 566.33 498.91 0
1/18/2018 3 PM CST 566.34 498.92 0
1/18/2018 4 PM CST 566.34 498.76 12
1/18/2018 5 PM CST 566.34 498.74 12
1/18/2018 6 PM CST 566.34 498.74 12
1/18/2018 7 PM CST 566.36 498.73 12
1/18/2018 8 PM CST 566.36 498.73 12
1/18/2018 9 PM CST 566.37 498.73 12
1/18/2018 10 PM CST 566.36 498.72 12

Elevations are in feet above sea level. Discharges are in cubic feet per second and are reported at the end of the hour.